This is the latest recevied weather packets stored in our database for station/object KF0FSA. If no packets are shown the sender has not sent any weather packets the latest 10 day(s).
| Time | Temp. | Humidity | Pressure | Rain* | Wind** | Luminosity | Snow |
|---|---|---|---|---|---|---|---|
| 1778016545 | 11.11° C | 32% | 959.3 hPa | 0 mm | - | 305 W/m² | - |
| 1778016246 | 11.67° C | 31% | 959.1 hPa | 0 mm | - | 513 W/m² | - |
| 1778015947 | 11.11° C | 32% | 958.8 hPa | 0 mm | - | 894 W/m² | - |
| 1778015646 | 10.56° C | 32% | 958.9 hPa | 0 mm | - | 773 W/m² | - |
| 1778015470 | 10.56° C | 32% | 959.2 hPa | 0 mm | - | 382 W/m² | - |
| 1778015047 | 10.56° C | 32% | 959.3 hPa | 0 mm | - | 399 W/m² | - |
| 1778014757 | 11.11° C | 33% | 959.3 hPa | 0 mm | - | 429 W/m² | - |
| 1778014446 | 11.11° C | 33% | 959.2 hPa | 0 mm | - | 363 W/m² | - |
| 1778014272 | 11.67° C | 32% | 959.2 hPa | 0 mm | - | 417 W/m² | - |
| 1778013845 | 11.11° C | 31% | 958.9 hPa | 0 mm | - | 972 W/m² | - |
| 1778013546 | 11.11° C | 32% | 959.3 hPa | 0 mm | - | 315 W/m² | - |
| 1778013370 | 11.11° C | 31% | 959.2 hPa | 0 mm | - | 504 W/m² | - |
| 1778012946 | 10.56° C | 33% | 959.1 hPa | 0 mm | - | 847 W/m² | - |
| 1778012643 | 11.11° C | 32% | 959.3 hPa | 0 mm | - | 710 W/m² | - |
| 1778012343 | 11.67° C | 30% | 959.4 hPa | 0 mm | - | 361 W/m² | - |
| 1778012043 | 11.67° C | 30% | 959.1 hPa | 0 mm | - | 904 W/m² | - |
| 1778011743 | 11.11° C | 32% | 959.1 hPa | 0 mm | - | 1032 W/m² | - |
| 1778011443 | 11.67° C | 30% | 959.6 hPa | 0 mm | - | 340 W/m² | - |
| 1778011143 | 11.11° C | 32% | 959.4 hPa | 0 mm | - | 485 W/m² | - |
| 1778010840 | 11.67° C | 31% | 959.5 hPa | 0 mm | - | 492 W/m² | - |
| 1778010541 | 11.67° C | 32% | 959.2 hPa | 0 mm | - | 1003 W/m² | - |
| 1778010240 | 11.11° C | 31% | 959.1 hPa | 0 mm | - | 1053 W/m² | - |
| 1778009940 | 10.56° C | 32% | 959.2 hPa | 0 mm | - | 1002 W/m² | - |
| 1778009640 | 10.56° C | 34% | 959.5 hPa | 0 mm | - | 1024 W/m² | - |
| 1778009341 | 11.11° C | 33% | 959.6 hPa | 0 mm | - | 399 W/m² | - |
* Rain latest hour (hover to see other rain measurements)
** Current wind speed in m/s (hover to see current wind gust speed)